WAT7LY RJOM-RKSI

Flight info

Callsign WAT7LY
Flight time 1h 18m
Altitude 34000
Route MARCO Y28 DGC G339 BEETL Y208 INVOK Z91 PSN Y782 BITUX Z53 BASEM Y685 GUKDO GUKDO3C
Aircraft B738/M-SDE2E3FGHIRWXY/LB1

Departure

Time 2026-04-14 20:07
Airport Matsuyama Airport (RJOM)

Arrival

Time 2026-04-14 21:25
Airport Incheon International Airport (RKSI)
Time Latitude Longitude Altitude Speed Heading
2026-04-14 19:46 33.82914 132.70260 24 ft 0 kts 41°
2026-04-14 19:58 33.82912 132.70258 24 ft 3 kts 41°
2026-04-14 19:58 33.82892 132.70236 26 ft 4 kts 43°
2026-04-14 19:59 33.82873 132.70214 26 ft 4 kts 45°
2026-04-14 19:59 33.82854 132.70190 30 ft 4 kts 50°
2026-04-14 19:59 33.82838 132.70165 28 ft 4 kts 60°
2026-04-14 19:59 33.82829 132.70137 28 ft 4 kts 100°
2026-04-14 20:00 33.82831 132.70126 24 ft 1 kts 128°
2026-04-14 20:01 33.82826 132.70131 24 ft 4 kts 136°
2026-04-14 20:01 33.82778 132.70194 27 ft 15 kts 130°
2026-04-14 20:02 33.82704 132.70297 26 ft 16 kts 130°
2026-04-14 20:02 33.82632 132.70399 25 ft 16 kts 131°
2026-04-14 20:02 33.82562 132.70497 26 ft 15 kts 130°
2026-04-14 20:02 33.82487 132.70601 29 ft 17 kts 130°
2026-04-14 20:03 33.82405 132.70716 26 ft 18 kts 130°
2026-04-14 20:03 33.82325 132.70828 25 ft 17 kts 130°
2026-04-14 20:03 33.82248 132.70937 27 ft 17 kts 130°
2026-04-14 20:03 33.82175 132.71019 24 ft 14 kts 160°
2026-04-14 20:04 33.82085 132.71007 26 ft 12 kts 189°
2026-04-14 20:04 33.82020 132.70993 22 ft 8 kts 197°
2026-04-14 20:04 33.82013 132.70954 22 ft 5 kts 324°
2026-04-14 20:04 33.82025 132.70942 22 ft 0 kts 313°
2026-04-14 20:06 33.82032 132.70932 22 ft 6 kts 311°
2026-04-14 20:06 33.82193 132.70708 26 ft 70 kts 310°
2026-04-14 20:06 33.82658 132.70057 23 ft 132 kts 310°
2026-04-14 20:06 33.83362 132.69105 205 ft 164 kts 312°
2026-04-14 20:07 33.84061 132.68030 945 ft 162 kts 298°
2026-04-14 20:07 33.84326 132.66640 1393 ft 183 kts 274°
2026-04-14 20:07 33.84421 132.64983 1659 ft 212 kts 274°
2026-04-14 20:07 33.84546 132.63116 1909 ft 233 kts 275°
2026-04-14 20:08 33.84694 132.61161 2402 ft 244 kts 274°
2026-04-14 20:08 33.84875 132.58997 2790 ft 264 kts 274°
2026-04-14 20:08 33.85074 132.56809 3518 ft 270 kts 274°
2026-04-14 20:08 33.85287 132.54549 4297 ft 273 kts 273°
2026-04-14 20:09 33.85506 132.52255 5033 ft 280 kts 273°
2026-04-14 20:09 33.85762 132.49832 5351 ft 307 kts 279°
2026-04-14 20:09 33.86706 132.47395 5623 ft 338 kts 304°
2026-04-14 20:09 33.88186 132.45137 6353 ft 346 kts 307°
2026-04-14 20:10 33.89693 132.42876 7243 ft 346 kts 307°
2026-04-14 20:10 33.91194 132.40612 8175 ft 345 kts 306°
2026-04-14 20:10 33.92664 132.38371 9099 ft 345 kts 306°
2026-04-14 20:10 33.94161 132.36072 10013 ft 345 kts 305°
2026-04-14 20:11 33.95636 132.33793 10808 ft 346 kts 305°
2026-04-14 20:11 33.97105 132.31514 11484 ft 351 kts 305°
2026-04-14 20:11 33.98607 132.29179 12190 ft 354 kts 305°
2026-04-14 20:11 34.00125 132.26819 12917 ft 357 kts 305°
2026-04-14 20:12 34.01650 132.24445 13638 ft 360 kts 305°
2026-04-14 20:12 34.03193 132.22043 14262 ft 364 kts 305°
2026-04-14 20:12 34.04747 132.19621 14901 ft 366 kts 305°
2026-04-14 20:12 34.06251 132.17131 15505 ft 368 kts 297°
2026-04-14 20:13 34.07073 132.14235 16096 ft 367 kts 277°
2026-04-14 20:13 34.07132 132.11172 16739 ft 367 kts 262°
2026-04-14 20:13 34.06571 132.08158 17367 ft 369 kts 255°
2026-04-14 20:13 34.05889 132.05157 17940 ft 373 kts 255°
2026-04-14 20:14 34.05182 132.02130 18461 ft 376 kts 255°
2026-04-14 20:14 34.04474 131.99083 19013 ft 377 kts 255°
2026-04-14 20:14 34.03775 131.96023 19583 ft 378 kts 255°
2026-04-14 20:14 34.03094 131.93001 20121 ft 379 kts 255°
2026-04-14 20:15 34.02408 131.89930 20665 ft 380 kts 255°
2026-04-14 20:15 34.01720 131.86846 21191 ft 381 kts 255°
2026-04-14 20:15 34.01030 131.83745 21671 ft 384 kts 255°
2026-04-14 20:15 34.00336 131.80635 22120 ft 386 kts 255°
2026-04-14 20:16 33.99636 131.77505 22645 ft 387 kts 255°
2026-04-14 20:16 33.98934 131.74370 23173 ft 388 kts 255°
2026-04-14 20:16 33.98227 131.71223 23591 ft 389 kts 255°
2026-04-14 20:16 33.97520 131.68079 23950 ft 391 kts 256°
2026-04-14 20:17 33.96807 131.64913 24315 ft 393 kts 256°
2026-04-14 20:17 33.96088 131.61722 24686 ft 394 kts 256°
2026-04-14 20:17 33.95366 131.58525 25055 ft 396 kts 256°
2026-04-14 20:17 33.94886 131.56398 25269 ft 397 kts 256°
2026-04-14 20:18 33.94159 131.53180 25583 ft 400 kts 256°
2026-04-14 20:18 33.93425 131.49938 25914 ft 402 kts 256°
2026-04-14 20:18 33.92448 131.45630 26394 ft 403 kts 256°
2026-04-14 20:18 33.91949 131.43429 26628 ft 404 kts 256°
2026-04-14 20:19 33.91207 131.40163 26956 ft 405 kts 256°
2026-04-14 20:19 33.90469 131.36923 27267 ft 407 kts 256°
2026-04-14 20:19 33.89719 131.33631 27579 ft 409 kts 255°
2026-04-14 20:19 33.88966 131.30328 27929 ft 409 kts 255°
2026-04-14 20:20 33.88213 131.27031 28410 ft 407 kts 255°
2026-04-14 20:20 33.87465 131.23762 28931 ft 403 kts 256°
2026-04-14 20:20 33.86722 131.20524 29412 ft 401 kts 256°
2026-04-14 20:20 33.85974 131.17288 29854 ft 400 kts 256°
2026-04-14 20:21 33.85229 131.14072 30257 ft 398 kts 256°
2026-04-14 20:21 33.84488 131.10880 30744 ft 394 kts 256°
2026-04-14 20:21 33.83755 131.07726 31263 ft 388 kts 256°
2026-04-14 20:21 33.83033 131.04619 31807 ft 383 kts 256°
2026-04-14 20:22 33.82321 131.01561 32338 ft 377 kts 256°
2026-04-14 20:22 33.81621 130.98551 32831 ft 372 kts 256°
2026-04-14 20:22 33.80925 130.95564 33283 ft 369 kts 256°
2026-04-14 20:22 33.80234 130.92601 33637 ft 367 kts 256°
2026-04-14 20:23 33.79545 130.89650 33866 ft 368 kts 256°
2026-04-14 20:23 33.78145 130.83662 33853 ft 372 kts 256°
2026-04-14 20:24 33.76750 130.77714 33857 ft 366 kts 256°
2026-04-14 20:24 33.75369 130.71842 33850 ft 365 kts 256°
2026-04-14 20:25 33.73987 130.65976 33842 ft 364 kts 256°
2026-04-14 20:25 33.72604 130.60119 33834 ft 364 kts 255°
2026-04-14 20:26 33.71222 130.54275 33837 ft 363 kts 256°
2026-04-14 20:26 33.69835 130.48429 33837 ft 365 kts 255°
2026-04-14 20:27 33.69429 130.42416 33837 ft 369 kts 276°
2026-04-14 20:27 33.71212 130.36603 33823 ft 380 kts 293°
2026-04-14 20:27 33.72820 130.34047 33824 ft 391 kts 307°
2026-04-14 20:28 33.74891 130.31880 33845 ft 397 kts 311°
2026-04-14 20:28 33.79263 130.27763 33844 ft 400 kts 312°
2026-04-14 20:29 33.83668 130.23665 33871 ft 400 kts 312°
2026-04-14 20:29 33.88054 130.19523 33860 ft 401 kts 311°
2026-04-14 20:30 33.92422 130.15359 33853 ft 401 kts 311°
2026-04-14 20:30 33.96796 130.11175 33873 ft 401 kts 311°
2026-04-14 20:31 34.01174 130.06981 33862 ft 401 kts 311°
2026-04-14 20:31 34.05519 130.02815 33891 ft 401 kts 311°
2026-04-14 20:32 34.09880 129.98626 33878 ft 401 kts 311°
2026-04-14 20:32 34.14241 129.94432 33876 ft 401 kts 311°
2026-04-14 20:33 34.18604 129.90231 33878 ft 401 kts 311°
2026-04-14 20:33 34.22962 129.86029 33888 ft 401 kts 311°
2026-04-14 20:34 34.29516 129.79727 33910 ft 402 kts 312°
2026-04-14 20:34 34.33913 129.75540 33898 ft 403 kts 312°
2026-04-14 20:35 34.38330 129.71328 33895 ft 405 kts 312°
2026-04-14 20:35 34.42760 129.67092 33891 ft 406 kts 312°
2026-04-14 20:36 34.47203 129.62837 33894 ft 408 kts 312°
2026-04-14 20:36 34.51657 129.58564 33897 ft 409 kts 312°
2026-04-14 20:37 34.56120 129.54278 33907 ft 410 kts 312°
2026-04-14 20:37 34.60606 129.49963 33914 ft 412 kts 311°
2026-04-14 20:38 34.65070 129.45663 33908 ft 413 kts 311°
2026-04-14 20:38 34.69566 129.41325 33912 ft 413 kts 311°
2026-04-14 20:39 34.74071 129.36975 33909 ft 413 kts 311°
2026-04-14 20:39 34.78574 129.32619 33915 ft 413 kts 311°
2026-04-14 20:40 34.83071 129.28273 33920 ft 413 kts 311°
2026-04-14 20:40 34.87571 129.23926 33921 ft 412 kts 311°
2026-04-14 20:41 34.92063 129.19577 33922 ft 412 kts 311°
2026-04-14 20:41 34.96545 129.15231 33923 ft 412 kts 311°
2026-04-14 20:42 35.00994 129.10910 33940 ft 411 kts 311°
2026-04-14 20:43 35.07704 129.04382 33928 ft 411 kts 311°
2026-04-14 20:43 35.12224 129.00079 33920 ft 416 kts 316°
2026-04-14 20:44 35.17452 128.96745 33945 ft 428 kts 324°
2026-04-14 20:44 35.22842 128.93641 33942 ft 428 kts 324°
2026-04-14 20:45 35.28222 128.90500 33952 ft 429 kts 324°
2026-04-14 20:45 35.33601 128.87321 33949 ft 429 kts 324°
2026-04-14 20:46 35.38980 128.84129 33946 ft 430 kts 324°
2026-04-14 20:46 35.44365 128.80931 33973 ft 430 kts 324°
2026-04-14 20:47 35.49752 128.77728 33962 ft 430 kts 324°
2026-04-14 20:47 35.55144 128.74524 33939 ft 429 kts 324°
2026-04-14 20:48 35.60503 128.71340 33956 ft 428 kts 324°
2026-04-14 20:48 35.65850 128.68155 33966 ft 426 kts 324°
2026-04-14 20:49 35.71186 128.64969 33996 ft 427 kts 324°
2026-04-14 20:49 35.76500 128.61794 33965 ft 427 kts 324°
2026-04-14 20:50 35.81633 128.58278 33963 ft 413 kts 314°
2026-04-14 20:50 35.85771 128.53564 33974 ft 404 kts 307°
2026-04-14 20:51 35.89786 128.48711 33965 ft 404 kts 307°
2026-04-14 20:51 35.93820 128.43872 33977 ft 405 kts 307°
2026-04-14 20:52 35.97876 128.39028 33971 ft 406 kts 307°
2026-04-14 20:52 36.01940 128.34175 33989 ft 407 kts 308°
2026-04-14 20:53 36.06016 128.29301 33972 ft 408 kts 308°
2026-04-14 20:53 36.10094 128.24418 33970 ft 408 kts 308°
2026-04-14 20:54 36.14186 128.19542 33968 ft 410 kts 310°
2026-04-14 20:54 36.18614 128.15100 33977 ft 413 kts 314°
2026-04-14 20:55 36.23197 128.10729 33971 ft 413 kts 315°
2026-04-14 20:55 36.27693 128.06396 33964 ft 412 kts 314°
2026-04-14 20:56 36.32181 128.02019 33972 ft 407 kts 314°
2026-04-14 20:56 36.34383 127.99866 33806 ft 401 kts 314°
2026-04-14 20:56 36.36551 127.97741 33532 ft 392 kts 314°
2026-04-14 20:56 36.38683 127.95648 33127 ft 388 kts 314°
2026-04-14 20:57 36.40786 127.93579 32774 ft 384 kts 315°
2026-04-14 20:57 36.42880 127.91515 32375 ft 381 kts 315°
2026-04-14 20:57 36.44950 127.89474 31993 ft 378 kts 315°
2026-04-14 20:57 36.46999 127.87452 31619 ft 375 kts 315°
2026-04-14 20:58 36.49034 127.85443 31249 ft 372 kts 315°
2026-04-14 20:58 36.51053 127.83448 30878 ft 369 kts 315°
2026-04-14 20:58 36.53055 127.81469 30521 ft 367 kts 315°
2026-04-14 20:58 36.55022 127.79524 30161 ft 364 kts 315°
2026-04-14 20:59 36.57000 127.77567 29775 ft 362 kts 315°
2026-04-14 20:59 36.58962 127.75623 29355 ft 359 kts 315°
2026-04-14 20:59 36.60912 127.73693 28974 ft 356 kts 315°
2026-04-14 20:59 36.62843 127.71779 28600 ft 353 kts 315°
2026-04-14 21:00 36.64755 127.69882 28238 ft 350 kts 315°
2026-04-14 21:00 36.66651 127.68000 27853 ft 347 kts 315°
2026-04-14 21:00 36.68536 127.66128 27484 ft 344 kts 315°
2026-04-14 21:00 36.70399 127.64276 27122 ft 342 kts 315°
2026-04-14 21:01 36.72253 127.62433 26776 ft 339 kts 315°
2026-04-14 21:01 36.74087 127.60606 26414 ft 337 kts 315°
2026-04-14 21:01 36.75911 127.58789 26065 ft 335 kts 315°
2026-04-14 21:01 36.77727 127.56979 25719 ft 333 kts 315°
2026-04-14 21:02 36.79534 127.55177 25375 ft 331 kts 315°
2026-04-14 21:02 36.81332 127.53383 25031 ft 330 kts 315°
2026-04-14 21:02 36.83117 127.51600 24683 ft 328 kts 315°
2026-04-14 21:02 36.84296 127.50423 24448 ft 328 kts 315°
2026-04-14 21:03 36.86646 127.48073 23990 ft 326 kts 315°
2026-04-14 21:03 36.87840 127.46879 23765 ft 325 kts 315°
2026-04-14 21:03 36.89608 127.45110 23369 ft 325 kts 315°
2026-04-14 21:03 36.91937 127.42777 22864 ft 323 kts 316°
2026-04-14 21:04 36.93686 127.41026 22507 ft 321 kts 316°
2026-04-14 21:04 36.95420 127.39288 22175 ft 319 kts 315°
2026-04-14 21:04 36.97143 127.37560 21838 ft 316 kts 315°
2026-04-14 21:04 36.98857 127.35840 21480 ft 315 kts 315°
2026-04-14 21:05 36.99988 127.34704 21253 ft 314 kts 315°
2026-04-14 21:05 37.01679 127.33004 20922 ft 312 kts 316°
2026-04-14 21:05 37.03370 127.31304 20591 ft 310 kts 316°
2026-04-14 21:05 37.05046 127.29618 20273 ft 309 kts 316°
2026-04-14 21:06 37.06717 127.27935 19945 ft 307 kts 316°
2026-04-14 21:06 37.08378 127.26263 19622 ft 306 kts 316°
2026-04-14 21:06 37.10036 127.24591 19297 ft 305 kts 316°
2026-04-14 21:06 37.11686 127.22927 18978 ft 304 kts 317°
2026-04-14 21:07 37.13329 127.21270 18662 ft 303 kts 317°
2026-04-14 21:07 37.14967 127.19616 18357 ft 302 kts 317°
2026-04-14 21:07 37.16598 127.17969 18020 ft 300 kts 317°
2026-04-14 21:07 37.18222 127.16328 17671 ft 299 kts 317°
2026-04-14 21:08 37.19836 127.14696 17343 ft 297 kts 318°
2026-04-14 21:08 37.21440 127.13072 17014 ft 295 kts 318°
2026-04-14 21:08 37.23033 127.11460 16698 ft 294 kts 318°
2026-04-14 21:08 37.24619 127.09854 16383 ft 292 kts 318°
2026-04-14 21:09 37.26176 127.08276 16076 ft 290 kts 319°
2026-04-14 21:09 37.27742 127.06687 15772 ft 289 kts 319°
2026-04-14 21:09 37.29303 127.05103 15458 ft 288 kts 319°
2026-04-14 21:09 37.30857 127.03526 15143 ft 286 kts 319°
2026-04-14 21:10 37.32402 127.01955 14848 ft 285 kts 319°
2026-04-14 21:10 37.33940 127.00392 14535 ft 284 kts 319°
2026-04-14 21:10 37.35475 126.98832 14238 ft 283 kts 319°
2026-04-14 21:10 37.37007 126.97273 13924 ft 283 kts 320°
2026-04-14 21:11 37.38536 126.95717 13597 ft 282 kts 320°
2026-04-14 21:11 37.40060 126.94164 13253 ft 281 kts 320°
2026-04-14 21:11 37.41570 126.92607 12900 ft 280 kts 317°
2026-04-14 21:11 37.42948 126.90847 12507 ft 285 kts 312°
2026-04-14 21:12 37.44281 126.88964 12110 ft 291 kts 311°
2026-04-14 21:12 37.45626 126.87044 11694 ft 293 kts 311°
2026-04-14 21:12 37.46984 126.85123 11289 ft 294 kts 312°
2026-04-14 21:12 37.48355 126.83198 10883 ft 296 kts 312°
2026-04-14 21:13 37.49736 126.81274 10467 ft 297 kts 313°
2026-04-14 21:13 37.51127 126.79344 10056 ft 298 kts 313°
2026-04-14 21:13 37.52508 126.77429 9930 ft 288 kts 313°
2026-04-14 21:14 37.55094 126.73842 9829 ft 266 kts 313°
2026-04-14 21:14 37.56316 126.72147 9765 ft 256 kts 313°
2026-04-14 21:14 37.57492 126.70514 9689 ft 247 kts 313°
2026-04-14 21:14 37.58623 126.68944 9598 ft 236 kts 313°
2026-04-14 21:15 37.59693 126.67458 9375 ft 229 kts 312°
2026-04-14 21:15 37.60754 126.65982 9025 ft 227 kts 312°
2026-04-14 21:15 37.61814 126.64508 8626 ft 226 kts 312°
2026-04-14 21:15 37.62849 126.63018 8244 ft 225 kts 304°
2026-04-14 21:16 37.63508 126.61236 7872 ft 224 kts 291°
2026-04-14 21:16 37.64063 126.59408 7501 ft 223 kts 292°
2026-04-14 21:16 37.64633 126.57593 7153 ft 222 kts 292°
2026-04-14 21:16 37.65202 126.55786 6804 ft 221 kts 292°
2026-04-14 21:17 37.65773 126.53987 6465 ft 220 kts 292°
2026-04-14 21:17 37.66339 126.52206 6117 ft 218 kts 292°
2026-04-14 21:17 37.66903 126.50434 5749 ft 217 kts 292°
2026-04-14 21:17 37.67285 126.48598 5385 ft 217 kts 277°
2026-04-14 21:18 37.67440 126.46713 5020 ft 216 kts 278°
2026-04-14 21:18 37.67621 126.44825 4612 ft 216 kts 278°
2026-04-14 21:18 37.67810 126.42943 4228 ft 217 kts 279°
2026-04-14 21:18 37.67986 126.41053 3860 ft 217 kts 274°
2026-04-14 21:19 37.67817 126.39198 3718 ft 206 kts 261°
2026-04-14 21:19 37.67565 126.37472 3468 ft 198 kts 262°
2026-04-14 21:19 37.67334 126.35767 3146 ft 193 kts 261°
2026-04-14 21:19 37.66787 126.34265 3026 ft 189 kts 223°
2026-04-14 21:20 37.65753 126.33285 3042 ft 186 kts 219°
2026-04-14 21:20 37.64725 126.32314 3009 ft 183 kts 219°
2026-04-14 21:20 37.63658 126.31468 2984 ft 183 kts 195°
2026-04-14 21:20 37.62409 126.31622 2942 ft 188 kts 151°
2026-04-14 21:21 37.61322 126.32517 2871 ft 190 kts 146°
2026-04-14 21:21 37.60239 126.33451 2744 ft 187 kts 145°
2026-04-14 21:21 37.59192 126.34377 2616 ft 184 kts 145°
2026-04-14 21:21 37.58143 126.35312 2382 ft 184 kts 145°
2026-04-14 21:22 37.57108 126.36236 2139 ft 181 kts 145°
2026-04-14 21:22 37.56087 126.37148 1901 ft 178 kts 145°
2026-04-14 21:22 37.55093 126.38034 1669 ft 171 kts 145°
2026-04-14 21:22 37.54160 126.38868 1487 ft 161 kts 145°
2026-04-14 21:23 37.53236 126.39692 1230 ft 161 kts 144°
2026-04-14 21:23 37.52333 126.40499 1010 ft 157 kts 144°
2026-04-14 21:23 37.51459 126.41279 793 ft 151 kts 144°
2026-04-14 21:23 37.50609 126.42038 598 ft 150 kts 144°
2026-04-14 21:24 37.49759 126.42797 393 ft 150 kts 144°
2026-04-14 21:24 37.48908 126.43558 208 ft 150 kts 144°
2026-04-14 21:24 37.48057 126.44319 37 ft 149 kts 144°
2026-04-14 21:24 37.47291 126.45006 31 ft 116 kts 144°
2026-04-14 21:25 37.46750 126.45480 32 ft 74 kts 144°
2026-04-14 21:25 37.46447 126.45740 31 ft 31 kts 153°
2026-04-14 21:25 37.46263 126.45802 31 ft 26 kts 174°
2026-04-14 21:25 37.46161 126.45815 31 ft 12 kts 174°
2026-04-14 21:26 37.46082 126.45827 31 ft 11 kts 168°
2026-04-14 21:26 37.46006 126.45842 31 ft 8 kts 197°
2026-04-14 21:26 37.45981 126.45786 31 ft 2 kts 236°
2026-04-14 21:26 37.45981 126.45785 31 ft 0 kts 236°
2026-04-14 21:27 37.45979 126.45781 30 ft 5 kts 236°
2026-04-14 21:27 37.45927 126.45686 32 ft 18 kts 234°
2026-04-14 21:28 37.45856 126.45559 32 ft 17 kts 234°
2026-04-14 21:28 37.45799 126.45499 32 ft 10 kts 198°
2026-04-14 21:28 37.45743 126.45456 31 ft 10 kts 234°
2026-04-14 21:28 37.45704 126.45388 30 ft 9 kts 234°
2026-04-14 21:29 37.45667 126.45322 32 ft 9 kts 235°
2026-04-14 21:29 37.45631 126.45257 32 ft 9 kts 234°
2026-04-14 21:29 37.45596 126.45195 32 ft 9 kts 234°
2026-04-14 21:29 37.45561 126.45135 32 ft 8 kts 234°
2026-04-14 21:30 37.45527 126.45076 32 ft 8 kts 234°
2026-04-14 21:30 37.45495 126.45020 32 ft 8 kts 234°
2026-04-14 21:30 37.45464 126.44965 32 ft 8 kts 234°
2026-04-14 21:30 37.45437 126.44920 32 ft 6 kts 229°
2026-04-14 21:31 37.45402 126.44894 32 ft 7 kts 197°
2026-04-14 21:31 37.45340 126.44892 31 ft 11 kts 167°
2026-04-14 21:31 37.45265 126.44918 32 ft 11 kts 165°
2026-04-14 21:31 37.45195 126.44944 31 ft 10 kts 159°
2026-04-14 21:32 37.45141 126.44994 31 ft 10 kts 140°
2026-04-14 21:32 37.45102 126.45035 31 ft 5 kts 140°
2026-04-14 21:32 37.45076 126.45062 30 ft 5 kts 140°
2026-04-14 21:32 37.45063 126.45076 30 ft 0 kts 140°